Weather History for PAMR - August, 2015

Change the Weather History Date:

Sunday, August 9, 2015

  Actual Average Record
Temperature  
Mean Temperature 60 °F -  
Max Temperature 63 °F 65 °F 82 °F (2003)
Min Temperature 57 °F 51 °F 46 °F (2000)
Degree Days  
Heating Degree Days 5    
Growing Degree Days 10 (Base 50)    
Moisture  
Dew Point 54 °F    
Average Humidity 81    
Maximum Humidity 87    
Minimum Humidity 70    
Precipitation  
Precipitation 0.24 in - - ()
Sea Level Pressure  
Sea Level Pressure 29.64 in    
Wind  
Wind Speed 4 mph (North)    
Max Wind Speed 13 mph    
Max Gust Speed 25 mph    
Visibility 10 miles    
Events Rain    
Averages and records for this station are not official NWS values.
T = Trace of Precipitation, MM = Missing Value Source: NWS Daily Summary

Daily Weather History Graph

Daily Weather History Graph

Search for Another Location

Airport or City:

Trip Planner

Search our weather history database for the weather conditions in past years. The results will help you decide how hot, cold, wet, or windy it might be!

Date:

Astronomy

Aug. 09, 2015 Rise Set
Actual Time 5:52 AM AKDT 10:15 PM AKDT
Civil Twilight 4:53 AM AKDT 11:13 PM AKDT
Nautical Twilight 3:04 AM AKDT 12:57 AM AKDT
Astronomical Twilight Sun does not set Sun does not set
Moon 1:26 AM AKDT (8/9) 6:51 PM AKDT (8/9)
Length of Visible Light 18h 20m
Length of Day
16h 23m
Waning Crescent, 22% of the Moon is Illuminated
Aug 9
Waning Crescent
Aug 14
New
Aug 22
First Quarter
Aug 29
Full
Sep 5
Last Quarter

Hourly Weather History & Observations

Time (AKDT) Temp. Dew Point Humidity Pressure Visibility Wind Dir Wind Speed Gust Speed Precip Events Conditions
12:53 AM 60.1 °F 52.0 °F 75% 29.74 in 10.0 mi North 4.6 mph - N/A   Scattered Clouds
1:53 AM 60.1 °F 52.0 °F 75% 29.73 in 10.0 mi Calm Calm - N/A   Mostly Cloudy
2:53 AM 60.1 °F 52.0 °F 75% 29.73 in 10.0 mi Calm Calm - N/A   Mostly Cloudy
3:53 AM 60.1 °F 52.0 °F 75% 29.72 in 10.0 mi Calm Calm - N/A   Overcast
4:53 AM 59.0 °F 54.0 °F 83% 29.70 in 10.0 mi NW 3.5 mph - 0.00 in Rain Light Rain
5:26 AM 59.0 °F 54.0 °F 83% 29.69 in 10.0 mi North 3.5 mph - 0.01 in Rain Light Rain
5:53 AM 59.0 °F 54.0 °F 83% 29.68 in 10.0 mi North 3.5 mph - 0.01 in Rain Light Rain
6:53 AM 57.9 °F 54.0 °F 87% 29.67 in 10.0 mi NNE 4.6 mph - 0.01 in Rain Light Rain
7:44 AM 57.9 °F 54.0 °F 87% 29.65 in 10.0 mi NE 4.6 mph - 0.00 in Rain Light Rain
7:53 AM 57.9 °F 54.0 °F 87% 29.66 in 10.0 mi Variable 3.5 mph - 0.00 in Rain Light Rain
8:15 AM 57.9 °F 54.0 °F 87% 29.65 in 10.0 mi Variable 3.5 mph - 0.00 in Rain Light Rain
8:53 AM 57.9 °F 54.0 °F 87% 29.65 in 10.0 mi North 3.5 mph - 0.00 in   Overcast
9:53 AM 59.0 °F 54.0 °F 83% 29.65 in 10.0 mi North 3.5 mph - N/A   Overcast
10:53 AM 59.0 °F 54.0 °F 83% 29.65 in 10.0 mi Calm Calm - 0.01 in Rain Light Rain
11:53 AM 59.0 °F 55.0 °F 87% 29.65 in 6.0 mi NNW 4.6 mph - 0.04 in Rain Light Rain
12:14 PM 59.0 °F 55.0 °F 87% 29.65 in 10.0 mi North 5.8 mph - 0.00 in Rain Light Rain
12:53 PM 61.0 °F 55.0 °F 81% 29.65 in 10.0 mi WNW 4.6 mph - 0.00 in   Overcast
1:53 PM 62.1 °F 54.0 °F 75% 29.65 in 10.0 mi NNW 5.8 mph - N/A   Overcast
2:53 PM 63.0 °F 55.0 °F 75% 29.63 in 10.0 mi North 6.9 mph - 0.01 in Rain Light Rain
3:53 PM 62.1 °F 55.0 °F 78% 29.63 in 9.0 mi North 3.5 mph - 0.01 in Rain Light Rain
4:53 PM 62.1 °F 55.9 °F 80% 29.61 in 10.0 mi WNW 3.5 mph - 0.01 in Rain Light Rain
5:53 PM 63.0 °F 55.9 °F 78% 29.60 in 10.0 mi North 5.8 mph - 0.01 in   Overcast
6:53 PM 63.0 °F 55.9 °F 78% 29.58 in 10.0 mi ENE 5.8 mph - 0.00 in   Overcast
7:53 PM 62.1 °F 55.9 °F 80% 29.57 in 10.0 mi West 3.5 mph - 0.00 in Rain Light Rain
8:53 PM 62.1 °F 52.0 °F 70% 29.57 in 10.0 mi Calm Calm - 0.02 in Rain Light Rain
9:53 PM 61.0 °F 52.0 °F 72% 29.57 in 10.0 mi Variable 3.5 mph - 0.02 in Rain Light Rain
10:53 PM 57.9 °F 53.1 °F 84% 29.60 in 7.0 mi South 12.7 mph 25.3 mph 0.07 in Rain Light Rain
11:07 PM 57.9 °F 53.1 °F 84% 29.59 in 6.0 mi South 12.7 mph 21.9 mph 0.01 in Rain Light Rain
11:44 PM 57.9 °F 53.1 °F 84% 29.59 in 10.0 mi South 9.2 mph - 0.02 in Rain Light Rain
11:53 PM 57.9 °F 53.1 °F 84% 29.60 in 10.0 mi SSE 5.8 mph - 0.02 in Rain Light Rain